Mobridge, SD

9:22 PM CDT on September 30, 2016 (GMT -0500)
Mobridge Municipal

Weather History for KMBG - April, 2013

Change the Weather History Date:

Thursday, April 18, 2013

  Actual Average Record
Temperature  
Mean Temperature 28 °F 46 °F  
Max Temperature 34 °F 60 °F 93 °F (1915)
Min Temperature 21 °F 33 °F 13 °F (1953)
Degree Days  
Heating Degree Days 37 19  
Month to date heating degree days 589 401  
Since 1 July heating degree days 7613 7403  
Cooling Degree Days 0 0  
Month to date cooling degree days 0 0  
Year to date cooling degree days 0 0  
Moisture  
Dew Point 19 °F    
Average Humidity 72    
Maximum Humidity 88    
Minimum Humidity 56    
Precipitation  
Precipitation 0.00 in 0.05 in 1.83 in (1957)
Month to date precipitation 1.48 0.70  
Year to date precipitation 2.82 2.33  
Snow  
Snow 0.00 in - - ()
Month to date snowfall 11.4  
Since 1 July snowfall 40.4  
Snow Depth 6.00 in    
Sea Level Pressure  
Sea Level Pressure 30.09 in    
Wind  
Wind Speed 16 mph (NNW)    
Max Wind Speed 28 mph    
Max Gust Speed 35 mph    
Visibility 10 miles    
Events      
T = Trace of Precipitation, MM = Missing Value Source: NWS Daily Summary

Daily Weather History Graph

Daily Weather History Graph

Search for Another Location

Airport or City:

Trip Planner

Search our weather history database for the weather conditions in past years. The results will help you decide how hot, cold, wet, or windy it might be!

Date:

Astronomy

Apr. 18, 2013 Rise Set
Actual Time 6:50 AM CDT 8:32 PM CDT
Civil Twilight 6:19 AM CDT 9:03 PM CDT
Nautical Twilight 5:40 AM CDT 9:41 PM CDT
Astronomical Twilight 4:59 AM CDT 10:23 PM CDT
Moon 1:00 PM CDT (4/18) 2:51 AM CDT (4/18)
Length of Visible Light 14h 44m
Length of Day
13h 41m
First Quarter, 52% of the Moon is Illuminated
Apr 18
First Quarter
Apr 25
Full
May 2
Last Quarter
May 9
New
May 17
First Quarter

Hourly Weather History & Observations

Time (CDT) Temp. Windchill Dew Point Humidity Pressure Visibility Wind Dir Wind Speed Gust Speed Precip Events Conditions
12:52 AM 28.0 °F 15.7 °F 23.0 °F 81% 30.18 in 10.0 mi NNW 17.3 mph - N/A   Overcast
1:52 AM 26.1 °F 14.0 °F 18.0 °F 71% 30.16 in 10.0 mi North 15.0 mph - N/A   Scattered Clouds
2:09 AM 24.8 °F 13.4 °F 19.4 °F 80% 30.10 in 10.0 mi NNW 12.7 mph - N/A   Mostly Cloudy
2:52 AM 24.1 °F 12.0 °F 19.9 °F 84% 30.17 in 10.0 mi NW 13.8 mph - N/A   Overcast
3:12 AM 24.8 °F 12.4 °F 19.4 °F 80% 30.09 in 10.0 mi NNW 15.0 mph - N/A   Overcast
3:52 AM 23.0 °F 10.6 °F 19.0 °F 85% 30.15 in 10.0 mi NW 13.8 mph - N/A   Mostly Cloudy
4:52 AM 21.9 °F 9.2 °F 18.0 °F 85% 30.14 in 10.0 mi NW 13.8 mph - N/A   Overcast
5:52 AM 21.9 °F 10.4 °F 17.1 °F 82% 30.14 in 10.0 mi NNW 11.5 mph - N/A   Mostly Cloudy
6:52 AM 21.9 °F 9.8 °F 17.1 °F 82% 30.12 in 10.0 mi NNW 12.7 mph - N/A   Clear
7:52 AM 21.0 °F 9.3 °F 16.0 °F 81% 30.13 in 10.0 mi NW 11.5 mph - N/A   Scattered Clouds
8:05 AM 21.2 °F 9.5 °F 17.6 °F 86% 30.05 in 10.0 mi NNW 11.5 mph - N/A   Mostly Cloudy
8:49 AM 23.0 °F 10.6 °F 17.6 °F 80% 30.04 in 10.0 mi NNW 13.8 mph - N/A   Scattered Clouds
8:52 AM 23.0 °F 10.6 °F 17.1 °F 78% 30.11 in 10.0 mi NNW 13.8 mph - N/A   Partly Cloudy
9:52 AM 25.0 °F 13.1 °F 16.0 °F 69% 30.10 in 10.0 mi NNW 13.8 mph - N/A   Clear
10:52 AM 27.0 °F 14.3 °F 18.0 °F 69% 30.09 in 10.0 mi NNW 17.3 mph 24.2 mph N/A   Clear
11:52 AM 28.9 °F 16.1 °F 17.1 °F 61% 30.09 in 10.0 mi NNW 19.6 mph 25.3 mph N/A   Clear
12:52 PM 30.0 °F 17.5 °F 18.0 °F 61% 30.09 in 10.0 mi NNW 19.6 mph 25.3 mph N/A   Clear
1:52 PM 32.0 °F 19.8 °F 19.0 °F 59% 30.08 in 10.0 mi NNW 20.7 mph 26.5 mph N/A   Clear
2:52 PM 32.0 °F 18.6 °F 19.9 °F 61% 30.07 in 10.0 mi NNW 25.3 mph 31.1 mph N/A   Clear
3:52 PM 33.1 °F 20.1 °F 19.0 °F 56% 30.06 in 10.0 mi NNW 25.3 mph 32.2 mph N/A   Clear
4:52 PM 33.1 °F 20.9 °F 19.9 °F 59% 30.06 in 10.0 mi NNW 21.9 mph 29.9 mph N/A   Clear
5:52 PM 33.1 °F 20.6 °F 19.0 °F 56% 30.06 in 10.0 mi NNW 23.0 mph 32.2 mph N/A   Clear
6:52 PM 33.1 °F 21.2 °F 21.9 °F 64% 30.06 in 10.0 mi NNW 20.7 mph 29.9 mph N/A   Clear
7:52 PM 32.0 °F 21.2 °F 21.9 °F 66% 30.06 in 10.0 mi NNW 16.1 mph - N/A   Clear
8:52 PM 28.9 °F 19.2 °F 21.0 °F 72% 30.06 in 10.0 mi NW 11.5 mph - N/A   Clear
9:52 PM 28.9 °F 18.6 °F 21.0 °F 72% 30.07 in 10.0 mi NNW 12.7 mph - N/A   Clear
10:52 PM 28.0 °F 18.1 °F 21.0 °F 75% 30.05 in 10.0 mi NNW 11.5 mph - N/A   Clear
11:52 PM 27.0 °F 16.7 °F 19.9 °F 75% 30.03 in 10.0 mi NW 11.5 mph - N/A   Clear